Location: *
(12.5665°N, 8.3471°E)
Time: 04:33:27
(UTC+00:00)

DELTA-4 R/B - Pass Details

Date: 23 September 2019
Orbit: 490 x 34469 km, 13.7° (Epoch: 18 October)

Event Time Altitude Azimuth Distance (km) Brightness Sun altitude
Rises 17:33:00 0° 249° (WSW) 15,057 11.1 -3.3°
Reaches altitude 10° 17:45:47 10° 248° (WSW) 16,976 11.1 -6.4°
Drops below altitude 10° 23:20:05 10° 266° (W) 36,831 11.4 -77.3°
Enters shadow 02:09:07 - 276° (W) 14,892 9.1 -46.0°
Exits shadow 02:48:40 74° 121° (ESE) 1,399 4.2 -36.6°
Sets 02:54:05 0° 101° (E) 2,963 6.9 -35.3°
